Date String (YYYY-MM-DD hh:mm:ss) UTC,Instrument flags,Ambient pressure (hPa),Sample flow (lpm),Bypass flow (lpm),Sample temperature (°C),Ambient temperature (°C),ASC tube jacket temperature (°C),LED temperature (°C),Box temperature (°C),Sample RH (%),Span deviation,Mass concentration (μg/m³),Mass concentration (μg/m³),Mass concentration (μg/m³)
DateTimeUTC,F1_M11,P_M11,Q1_M11,Q2_M11,T1_M11,T2_M11,T3_M11,T4_M11,T5_M11,U1_M11,ZSPAN_M11,X2_M11,X0_M11,X1_M11
2023-03-07 13:00:00,,0825.6,5.00,0.00,22.6,21.1,00.0,31.3,24.2,15.5,0000.0,0003.22,0003.66,0003.17
2023-03-07 13:01:00,,0825.6,5.00,0.00,22.6,20.9,00.0,31.3,24.1,15.5,0000.0,0003.23,0003.65,0003.19
2023-03-07 13:02:00,,0825.6,5.00,0.00,22.5,20.7,00.0,31.3,24.1,15.5,0000.0,0003.25,0003.74,0003.20
2023-03-07 13:03:00,,0825.5,5.00,0.00,22.5,20.6,00.0,31.3,24.0,15.5,0000.0,0003.26,0003.78,0003.22
2023-03-07 13:04:00,,0825.5,5.00,0.00,22.4,20.6,00.0,31.3,24.0,15.5,0000.0,0003.28,0003.90,0003.23
2023-03-07 13:05:00,,0825.4,5.01,0.00,22.5,21.5,00.0,31.2,24.2,15.5,0000.0,0003.30,0003.92,0003.26
2023-03-07 13:06:00,,0825.4,4.99,0.00,22.6,22.6,00.0,31.2,24.5,15.4,0000.0,0003.32,0003.94,0003.28
2023-03-07 13:07:00,,0825.5,5.00,0.00,22.7,23.2,00.0,31.3,24.7,15.3,0000.0,0003.33,0003.94,0003.29
2023-03-07 13:08:00,,0825.4,5.02,0.00,22.7,22.7,00.0,31.3,24.6,15.3,0000.0,0003.36,0004.00,0003.31
2023-03-07 13:09:00,,0825.5,5.02,0.00,22.7,22.2,00.0,31.3,24.5,15.3,0000.0,0003.38,0004.06,0003.34
2023-03-07 13:10:00,,0825.5,4.99,0.00,22.7,21.8,00.0,31.4,24.4,15.3,0000.0,0003.39,0004.07,0003.35
2023-03-07 13:11:00,,0825.5,5.01,0.00,22.7,21.5,00.0,31.4,24.3,15.3,0000.0,0003.40,0004.06,0003.36
2023-03-07 13:12:00,,0825.6,5.00,0.00,22.6,21.3,00.0,31.4,24.3,15.3,0000.0,0003.43,0004.19,0003.38
2023-03-07 13:13:00,,0825.5,5.00,0.00,22.6,21.1,00.0,31.4,24.3,15.3,0000.0,0003.45,0004.15,0003.40
2023-03-07 13:14:00,,0825.5,5.00,0.00,22.6,20.9,00.0,31.3,24.2,15.3,0000.0,0003.48,0004.19,0003.42
2023-03-07 13:15:00,,0825.4,5.00,0.00,22.6,20.8,00.0,31.3,24.1,15.3,0000.0,0003.51,0004.13,0003.44
2023-03-07 13:16:00,,0825.5,5.00,0.00,22.5,20.6,00.0,31.3,24.0,15.4,0000.0,0003.53,0004.14,0003.46
2023-03-07 13:17:00,,0825.5,4.99,0.00,22.5,20.7,00.0,31.3,24.1,15.4,0000.0,0003.55,0004.16,0003.47
2023-03-07 13:18:00,,0825.5,5.01,0.00,22.6,21.8,00.0,31.3,24.3,15.4,0000.0,0003.58,0004.27,0003.49
2023-03-07 13:19:00,,0825.6,5.00,0.00,22.7,22.9,00.0,31.3,24.5,15.3,0000.0,0003.59,0004.35,0003.49
2023-03-07 13:20:00,,0825.6,4.98,0.00,22.8,23.2,00.0,31.3,24.7,15.2,0000.0,0003.60,0004.38,0003.50
2023-03-07 13:21:00,,0825.6,4.97,0.00,22.8,22.7,00.0,31.4,24.6,15.2,0000.0,0003.60,0005.06,0003.50
2023-03-07 13:22:00,,0825.6,5.00,0.00,22.7,22.2,00.0,31.4,24.5,15.2,0000.0,0003.61,0005.82,0003.51
2023-03-07 13:23:00,,0825.6,5.00,0.00,22.7,21.7,00.0,31.4,24.4,15.2,0000.0,0003.60,0005.78,0003.52
2023-03-07 13:24:00,,0825.6,5.01,0.00,22.7,21.5,00.0,31.4,24.3,15.2,0000.0,0003.61,0005.89,0003.52
2023-03-07 13:25:00,,0825.5,5.01,0.00,22.6,21.2,00.0,31.4,24.2,15.2,0000.0,0003.61,0005.88,0003.52
2023-03-07 13:26:00,,0825.5,5.00,0.00,22.6,21.1,00.0,31.4,24.2,15.2,0000.0,0003.59,0005.83,0003.52
2023-03-07 13:27:00,,0825.6,5.00,0.00,22.6,20.9,00.0,31.4,24.2,15.3,0000.0,0003.58,0005.84,0003.50
2023-03-07 13:28:00,,0825.6,5.01,0.00,22.6,20.8,00.0,31.3,24.1,15.3,0000.0,0003.57,0005.85,0003.49
2023-03-07 13:29:00,,0825.6,5.00,0.00,22.5,21.0,00.0,31.3,24.2,15.3,0000.0,0003.55,0005.78,0003.48
2023-03-07 13:30:00,,0825.5,4.99,0.00,22.6,22.1,00.0,31.3,24.4,15.3,0000.0,0003.55,0005.77,0003.49
2023-03-07 13:31:00,,0825.6,4.99,0.00,22.7,23.1,00.0,31.4,24.6,15.2,0000.0,0003.56,0005.78,0003.50
2023-03-07 13:32:00,,0825.8,5.00,0.00,22.8,23.1,00.0,31.4,24.7,15.1,0000.0,0003.58,0005.16,0003.52
2023-03-07 13:33:00,,0825.7,4.99,0.00,22.8,22.6,00.0,31.4,24.6,15.1,0000.0,0003.61,0004.50,0003.53
2023-03-07 13:34:00,,0825.6,5.01,0.00,22.8,22.2,00.0,31.4,24.5,15.1,0000.0,0003.62,0004.50,0003.55
2023-03-07 13:35:00,,0825.6,4.99,0.00,22.8,21.8,00.0,31.4,24.5,15.1,0000.0,0003.64,0004.40,0003.57
2023-03-07 13:36:00,,0825.6,5.00,0.00,22.7,21.5,00.0,31.4,24.4,15.2,0000.0,0003.67,0004.49,0003.58
2023-03-07 13:37:00,,0825.6,5.00,0.00,22.7,21.3,00.0,31.4,24.3,15.2,0000.0,0003.69,0004.55,0003.60
2023-03-07 13:38:00,,0825.6,5.00,0.00,22.7,21.1,00.0,31.4,24.3,15.2,0000.0,0003.71,0004.58,0003.63
2023-03-07 13:39:00,,0825.6,5.01,0.00,22.6,20.9,00.0,31.4,24.2,15.2,0000.0,0003.75,0004.70,0003.65
2023-03-07 13:40:00,,0825.7,5.01,0.00,22.6,20.8,00.0,31.4,24.2,15.2,0000.0,0003.77,0004.74,0003.68
2023-03-07 13:41:00,,0825.7,4.99,0.00,22.6,20.7,00.0,31.4,24.2,15.3,0000.0,0003.77,0004.68,0003.69
2023-03-07 13:42:00,,0825.6,5.00,0.00,22.5,20.7,00.0,31.4,24.1,15.3,0000.0,0003.79,0004.70,0003.70
2023-03-07 13:43:00,,0825.6,5.02,0.00,22.5,21.1,00.0,31.3,24.2,15.3,0000.0,0003.79,0004.73,0003.70
2023-03-07 13:44:00,,0825.7,4.99,0.00,22.6,22.2,00.0,31.3,24.4,15.2,0000.0,0003.79,0004.84,0003.70
2023-03-07 13:45:00,,0825.7,5.03,0.00,22.7,23.2,00.0,31.4,24.7,15.2,0000.0,0003.79,0004.85,0003.70
2023-03-07 13:46:00,,0825.7,5.01,0.00,22.8,23.0,00.0,31.4,24.7,15.1,0000.0,0003.79,0004.85,0003.69
2023-03-07 13:47:00,,0825.7,4.99,0.00,22.8,22.5,00.0,31.4,24.6,15.1,0000.0,0003.78,0004.78,0003.70
2023-03-07 13:48:00,,0825.7,5.01,0.00,22.8,22.1,00.0,31.4,24.5,15.1,0000.0,0003.78,0004.76,0003.70
2023-03-07 13:49:00,,0825.6,5.00,0.00,22.7,21.7,00.0,31.4,24.4,15.1,0000.0,0003.79,0004.80,0003.71
2023-03-07 13:50:00,,0825.6,5.00,0.00,22.7,21.5,00.0,31.4,24.4,15.1,0000.0,0003.79,0004.74,0003.72
2023-03-07 13:51:00,,0825.6,4.99,0.00,22.7,21.3,00.0,31.4,24.3,15.2,0000.0,0003.82,0004.82,0003.73
2023-03-07 13:52:00,,0825.7,5.00,0.00,22.7,21.0,00.0,31.4,24.2,15.2,0000.0,0003.83,0004.85,0003.74
2023-03-07 13:53:00,,0825.6,5.00,0.00,22.6,20.9,00.0,31.4,24.2,15.2,0000.0,0003.84,0004.88,0003.75
2023-03-07 13:54:00,,0825.6,5.00,0.00,22.6,20.8,00.0,31.4,24.2,15.2,0000.0,0003.84,0004.87,0003.75
2023-03-07 13:55:00,,0825.6,5.00,0.00,22.5,20.7,00.0,31.4,24.1,15.3,0000.0,0003.82,0004.75,0003.73
2023-03-07 13:56:00,,0825.7,5.00,0.00,22.6,21.3,00.0,31.4,24.2,15.3,0000.0,0003.80,0004.72,0003.71
2023-03-07 13:57:00,,0825.7,4.99,0.00,22.7,22.4,00.0,31.3,24.5,15.2,0000.0,0003.79,0004.74,0003.71
2023-03-07 13:58:00,,0825.7,5.02,0.00,22.8,23.2,00.0,31.4,24.7,15.1,0000.0,0003.79,0004.80,0003.70
2023-03-07 13:59:00,,0825.7,5.00,0.00,22.8,22.9,00.0,31.4,24.7,15.1,0000.0,0003.78,0004.84,0003.69
